COSMOS 680

Satellite information

Favourite Embed

Satellite Type and Status

PAYLOADIN ORBIT

Key statistics

Satellite COSMOS 680 at a glance.

Uptime

18553

Days in orbit

Revolutions

≈ 12.5

Per day

Orbit

LEO

Low Earth Orbit

Inclination

74.0

Latest

Satellite identification and parameters

Extended collection of information and parameters for COSMOS 680.

Object identification

Identified? True

Debris? False

Object name: COSMOS 680

International designator: 1974-072D

Object number (NORAD): 7438

Object ID (CCSDS): 7438

Country: COMMONWEALTH OF INDEPENDENT STATES (CIS)

Current information (Y/N): Y

RCS size: MEDIUM

Orbital parameters

Period: 115.511 minutes

Inclination: 74.0327 deg

SMA: 7856.724 km

Apoapsis: 1491.549 km

Periapsis: 1465.629 km

RAAN: 225.8262 deg

Eccentricy: 0.0016496

Argument of periapsis: 268.7462 deg

Mean anomaly: 209.6826 deg

Mean motion: 12.46638437 rev/day

Mean motion (dot): -0.00000002 rev/day2

B* drag term: 0.000091427 1/REarth

Two-line elements (TLE)

Creation date: July 5, 2025, 5:45 p.m.

Reference frame: TEME

Reference center: EARTH

Epoch: July 5, 2025, 2:14 p.m. UTC

TLE line 0: 0 COSMOS 680

TLE line 1: 1 07438U 74072D 25186.59342170 -.00000002 00000-0 91427-4 0 9995

TLE line 2: 2 07438 74.0327 225.8262 0016496 268.7462 209.6826 12.46638437311490

Live tracking on map

Real-time ground track for satellite COSMOS 680.

In-orbit conjunctions

There are no conjunctions computed for COSMOS 680, at the moment. Check back to stay up to date, as we update our databases every day.

Go to all conjunctions

Associated space launch

Military communications satellites

COSMOS 680 was lifted into orbit during the mission ‘Kosmos-3M | Strela-1M 73-80’, on board a Kosmos-3M space rocket.

The launch took place on Sept. 19, 1974, 2:57 p.m. from 132/2.

For more information about the launch, click the button.

Launch to space Kosmos-3M | Strela-1M 73-80
Kosmos-3M | Strela-1M 73-80

Agency: N/A

Status: Launch Successful

Launch date: Sept. 19, 1974, 2:57 p.m. UTC

Rocket: Kosmos-3M

Launch pad: 132/2

Location: Plesetsk Cosmodrome, Russian Federation

...

Latest news about this satellite

There are no fresh news available about this satellite. Check back as we update our databases every day.


Newsletter sign-up

Weekly statistics, charts and insights to help you stay on top of the space industry.